Mankato, MN

6:28 AM CST on November 19, 2019 (GMT -0600)
Mankato Regional

Weather History for KMKT - September, 2019

Change the Weather History Date:

Friday, September 6, 2019

  Actual Average Record
Temperature  
Mean Temperature 68 °F -  
Max Temperature 75 °F 74 °F 91 °F (2003)
Min Temperature 62 °F 55 °F 46 °F (2008)
Cooling Degree Days 4    
Growing Degree Days 18 (Base 50)    
Moisture  
Dew Point 59 °F    
Average Humidity 77    
Maximum Humidity 90    
Minimum Humidity 59    
Precipitation  
Precipitation 0.00 in - - ()
Sea Level Pressure  
Sea Level Pressure 30.10 in    
Wind  
Wind Speed 9 mph ()    
Max Wind Speed 15 mph    
Max Gust Speed 21 mph    
Visibility 10.0 miles    
Events      
Averages and records for this station are not official NWS values.
T = Trace of Precipitation, MM = Missing Value Source: Averaged Metar Reports

Daily Weather History Graph

Daily Weather History Graph

Search for Another Location

Airport or City:

Astronomy

Sep. 06, 2019 Rise Set
Actual Time 6:44 AM CDT 7:43 PM CDT
Civil Twilight 6:14 AM CDT 8:12 PM CDT
Nautical Twilight 5:39 AM CDT 8:47 PM CDT
Astronomical Twilight 5:02 AM CDT 9:24 PM CDT
Moon 3:10 PM CDT (9/6) No Moon Set
Length of Visible Light 13h 57m
Length of Day
12h 58m
First Quarter, 56% of the Moon is Illuminated
Sep 6
First Quarter
Sep 13
Full
Sep 21
Last Quarter
Sep 28
New
Oct 5
First Quarter

Hourly Weather History & Observations

Time (CDT) Temp. Dew Point Humidity Pressure Visibility Wind Dir Wind Speed Gust Speed Precip Events Conditions
12:56 AM 64.9 °F 61.0 °F 87% 30.01 in 10.0 mi NNW 12.7 mph - N/A   Overcast
1:56 AM 64.9 °F 61.0 °F 87% 30.01 in 10.0 mi NW 10.4 mph - N/A   Overcast
2:56 AM 64.0 °F 61.0 °F 90% 30.02 in 10.0 mi NW 10.4 mph - N/A   Overcast
3:56 AM 64.0 °F 60.1 °F 87% 30.02 in 10.0 mi NW 12.7 mph - N/A   Overcast
4:56 AM 64.0 °F 57.9 °F 80% 30.04 in 10.0 mi NNW 15.0 mph 20.7 mph N/A   Overcast
5:56 AM 63.0 °F 57.9 °F 84% 30.06 in 10.0 mi NW 11.5 mph - N/A   Overcast
6:56 AM 62.1 °F 57.9 °F 86% 30.09 in 10.0 mi NNW 9.2 mph - N/A   Overcast
7:56 AM 62.1 °F 57.9 °F 86% 30.11 in 10.0 mi NNW 11.5 mph - N/A   Overcast
8:30 AM 62.6 °F 57.2 °F 82% 30.11 in 10.0 mi NNW 13.8 mph - N/A   Scattered Clouds
8:56 AM 63.0 °F 57.9 °F 84% 30.13 in 10.0 mi NNW 12.7 mph - N/A   Clear
9:19 AM 62.6 °F 57.2 °F 82% 30.14 in 10.0 mi NNW 12.7 mph - N/A   Mostly Cloudy
9:56 AM 63.0 °F 57.9 °F 84% 30.14 in 10.0 mi North 11.5 mph - N/A   Overcast
10:56 AM 66.9 °F 57.9 °F 73% 30.14 in 10.0 mi North 12.7 mph - N/A   Scattered Clouds
11:56 AM 68.0 °F 59.0 °F 73% 30.15 in 10.0 mi NNW 10.4 mph - N/A   Mostly Cloudy
12:17 PM 69.8 °F 59.0 °F 68% 30.15 in 10.0 mi NNW 9.2 mph - N/A   Mostly Cloudy
12:25 PM 69.8 °F 59.0 °F 68% 30.15 in 10.0 mi NNW 11.5 mph 17.3 mph N/A   Scattered Clouds
12:56 PM 71.1 °F 59.0 °F 66% 30.14 in 10.0 mi NNW 9.2 mph - N/A   Partly Cloudy
1:56 PM 73.0 °F 60.1 °F 64% 30.13 in 10.0 mi NNW 11.5 mph - N/A   Partly Cloudy
2:56 PM 73.9 °F 59.0 °F 59% 30.13 in 10.0 mi NNW 9.2 mph - N/A   Scattered Clouds
3:56 PM 75.0 °F 60.1 °F 60% 30.12 in 10.0 mi NW 8.1 mph 18.4 mph N/A   Scattered Clouds
4:56 PM 75.0 °F 60.1 °F 60% 30.11 in 10.0 mi NNW 9.2 mph - N/A   Scattered Clouds
5:56 PM 73.9 °F 60.1 °F 62% 30.10 in 10.0 mi NW 8.1 mph - N/A   Mostly Cloudy
6:56 PM 73.0 °F 60.1 °F 64% 30.09 in 10.0 mi WNW 3.5 mph - N/A   Clear
7:56 PM 70.0 °F 61.0 °F 73% 30.10 in 10.0 mi WSW 4.6 mph - N/A   Clear
8:56 PM 66.0 °F 61.0 °F 84% 30.10 in 10.0 mi SSW 4.6 mph - N/A   Scattered Clouds
9:56 PM 64.9 °F 61.0 °F 87% 30.10 in 10.0 mi SSW 3.5 mph - N/A   Partly Cloudy
10:56 PM 64.0 °F 61.0 °F 90% 30.10 in 10.0 mi West 3.5 mph - N/A   Mostly Cloudy
11:56 PM 64.9 °F 61.0 °F 87% 30.11 in 10.0 mi NNW 4.6 mph - N/A   Scattered Clouds